Location: Star Hoppers Observatory
(42.7905°N, 83.6127°W)
Time: 03:51:46
(UTC-04:00)

NOSS 3-1 (A) - Visible Passes

Search period start: 24 April 2014 00:00
Search period end: 04 May 2014 00:00
Orbit: 904 x 1309 km, 63.4° (Epoch: 19 April)

Date Brightness Start Highest point End Pass type
(mag) Time Alt. Az. Time Alt. Az. Time Alt. Az.
24 Apr 5.9 00:56:31 10° NNW 01:01:58 22° NNE 01:07:45 10° ENE visible
24 Apr 4.2 02:46:57 10° NNW 02:54:22 66° NE 03:00:22 19° SE visible
24 Apr 4.6 04:38:31 10° NW 04:45:02 32° WSW 04:47:32 27° SW visible
24 Apr 6.3 22:19:02 10° NW 22:22:22 14° N 22:25:51 10° NNE visible
25 Apr 6.1 00:11:55 10° NNW 00:16:34 18° NNE 00:21:28 10° ENE visible
25 Apr 4.7 02:02:23 10° NNW 02:09:28 47° NE 02:14:33 21° ESE visible
25 Apr 4.1 03:53:24 10° NW 04:00:35 48° WSW 04:01:51 45° SW visible
25 Apr 6.2 21:32:59 10° NW 21:36:49 16° NNW 21:40:51 10° NNE visible
25 Apr 6.2 23:27:10 10° NNW 23:31:03 15° NNE 23:35:07 10° NE visible
26 Apr 5.2 01:17:52 10° NNW 01:24:26 34° NE 01:29:46 16° E visible
26 Apr 3.8 03:08:32 10° NW 03:16:01 72° WSW 03:17:07 64° S visible
26 Apr 5.5 05:02:04 10° WNW 05:04:28 14° W 05:04:28 14° W visible
26 Apr 6.2 22:42:08 10° NNW 22:45:28 14° N 22:48:56 10° NE visible
27 Apr 5.6 00:33:20 10° NNW 00:39:16 26° NNE 00:45:25 10° E visible
27 Apr 3.9 02:23:50 10° NW 02:31:20 81° NE 02:32:48 63° SE visible
27 Apr 5.1 04:15:53 10° WNW 04:20:10 23° W 04:20:10 23° W visible
27 Apr 6.2 21:56:39 10° NNW 21:59:51 13° N 22:03:10 10° NNE visible
27 Apr 5.9 23:48:47 10° NNW 23:53:56 20° NNE 23:59:23 10° ENE visible
28 Apr 4.4 01:39:13 10° NNW 01:46:31 58° NE 01:48:43 44° E visible
28 Apr 4.6 03:30:32 10° NW 03:36:06 35° W 03:36:06 35° W visible
28 Apr 6.2 21:10:45 10° NW 21:14:15 14° N 21:17:55 10° NNE visible
28 Apr 6.1 23:04:08 10° NNW 23:08:29 17° NNE 23:13:03 10° NE visible
29 Apr 4.9 00:54:40 10° NNW 01:01:35 41° NE 01:04:47 29° E visible
29 Apr 4.1 02:45:32 10° NW 02:52:11 55° W 02:52:11 55° W visible
29 Apr 6.1 22:19:18 10° NNW 22:22:56 14° N 22:26:44 10° NE visible
30 Apr 5.3 00:10:09 10° NNW 00:16:30 31° NE 00:20:59 18° E visible
30 Apr 3.8 02:00:45 10° NW 02:08:16 82° WSW 02:08:23 82° SW visible
30 Apr 5.6 03:53:33 10° WNW 03:55:47 15° W 03:55:47 15° W visible
30 Apr 6.1 21:34:06 10° NNW 21:37:20 13° N 21:40:41 10° NNE visible
30 Apr 5.6 23:25:37 10° NNW 23:31:15 24° NNE 23:37:14 10° E visible
01 May 4.1 01:16:05 10° NNW 01:23:32 71° NE 01:24:40 63° E visible
01 May 5.1 03:07:48 10° NW 03:12:05 26° W 03:12:05 26° W visible
01 May 5.9 22:41:03 10° NNW 22:45:53 19° NNE 22:50:59 10° ENE visible
02 May 4.5 00:31:30 10° NNW 00:38:40 51° NE 00:41:02 39° E visible
02 May 4.6 02:22:37 10° NW 02:28:27 41° W 02:28:27 41° W visible
02 May 6.0 21:56:20 10° NNW 22:00:24 16° NNE 22:04:38 10° NE visible
02 May 5.0 23:46:58 10° NNW 23:53:40 37° NE 23:57:27 24° E visible
03 May 4.0 01:37:42 10° NW 01:44:52 65° WSW 01:44:52 65° WSW visible
03 May 5.9 03:31:51 10° W 03:32:17 11° W 03:32:17 11° W visible
03 May 6.1 21:11:23 10° NNW 21:14:49 14° N 21:18:23 10° NE visible
03 May 5.4 23:02:26 10° NNW 23:08:32 28° NE 23:13:55 14° E visible
